Home   Weather   Bristol   Past weeks

Flag for USA Past Weather in Bristol, Tennessee, USA — Yesterday and Last 2 Weeks

Now
26 °F

Clear.


Feels Like: 26 °F
Forecast: 23 / 49 °F
Wind: No wind

Location: Abingdon-Southwest Abingdon

Current Time: Dec 10, 2016 at 9:39:57 pm

Latest Report: Dec 10, 2016 at 9:15 pm


Visibility: 10 mi

Pressure: 30.41 "Hg (28.51 "Hg at 510m altitude)

Humidity: 65%

Dew Point: 16 °F

Location of BristolLocation

Past Weather in Bristol — Graph

°F

Bristol Temperature Yesterday

Maximum temperature yesterday: 30 °F (at 2:35 pm)
Minimum temperature yesterday: 19 °F (at 11:55 pm)
Average temperature yesterday: 25 °F

High & Low Weather Summary for the Past Weeks

 TemperatureHumidityPressure
High71 °F (Nov 29, 1:55 pm)100% (Nov 29, 8:55 am)30.51 "Hg (Nov 29, 8:55 am)
Low15 °F (Dec 10, 6:55 am)13% (Nov 27, 2:55 pm)29.67 "Hg (Nov 30, 4:55 pm)
Average42 °F71%30.09 "Hg
* Reported Nov 25 8:15 pm — Dec 10 8:15 pm, Bristol, Weather by CustomWeather, © 2016

Note: Actual official high and low records may vary slightly from our data, if they occured in-between our weather recording intervals... More about our weather records

Advertising

Bristol Weather History for the Previous 24 Hours

Scroll right to see more
 ConditionsComfort  
Time TempWeatherWind HumidityBarometerVisibility
8:15 pm
Sat, Dec 10
27 °FClear.No wind59%30.41 "Hg10 mi
7:55 pm26 °FClear.No wind62%30.42 "Hg10 mi
7:35 pm27 °FClear.No wind61%30.41 "Hg10 mi
7:15 pm28 °FClear.No wind56%30.41 "Hg10 mi
6:55 pm29 °FClear.No wind52%30.41 "Hg10 mi
6:15 pm31 °FClear.No wind47%30.41 "Hg10 mi
5:55 pm31 °FClear.No wind48%30.42 "Hg10 mi
5:15 pm33 °FClear.No wind42%30.42 "Hg10 mi
4:55 pm34 °FSunny.5 mph39%30.42 "Hg10 mi
4:35 pm34 °FSunny.6 mph39%30.42 "Hg10 mi
4:15 pm35 °FSunny.7 mph35%30.42 "Hg10 mi
3:55 pm35 °FSunny.5 mph36%30.42 "Hg10 mi
3:35 pm35 °FSunny.7 mph35%30.42 "Hg10 mi
3:15 pm35 °FSunny.7 mph38%30.42 "Hg10 mi
2:55 pm35 °FSunny.3 mph36%30.43 "Hg10 mi
2:35 pm35 °FSunny.7 mph40%30.43 "Hg10 mi
2:15 pm34 °FSunny.7 mph42%30.42 "Hg10 mi
1:55 pm34 °FSunny.8 mph43%30.42 "Hg10 mi
1:35 pm32 °FSunny.6 mph46%30.42 "Hg10 mi
1:15 pm32 °FSunny.10 mph47%30.43 "Hg10 mi
12:55 pm32 °FSunny.7 mph49%30.44 "Hg10 mi
12:35 pm31 °FSunny.9 mph51%30.44 "Hg10 mi
12:15 pm31 °FSunny.10 mph53%30.46 "Hg10 mi
11:55 am31 °FSunny.3 mph54%30.48 "Hg10 mi
11:35 am29 °FSunny.5 mph58%30.49 "Hg10 mi
11:15 am29 °FSunny.7 mph62%30.50 "Hg10 mi
10:55 am28 °FSunny.5 mph64%30.50 "Hg10 mi
10:15 am27 °FSunny.3 mph67%30.51 "Hg10 mi
9:55 am26 °FSunny.3 mph73%30.51 "Hg10 mi
9:35 am24 °FSunny.3 mph78%30.51 "Hg10 mi
9:15 am23 °FSunny.No wind80%30.51 "Hg10 mi
8:55 am22 °FSunny.No wind82%30.50 "Hg10 mi
8:35 am20 °FSunny.No wind85%30.50 "Hg10 mi
8:15 am17 °FSunny.No wind86%30.49 "Hg10 mi
7:55 am16 °FIce fog.No wind86%30.48 "Hg5 mi
7:15 am15 °FClear.No wind87%30.47 "Hg10 mi
6:55 am15 °FClear.No wind86%30.47 "Hg10 mi
6:15 am16 °FClear.No wind86%30.46 "Hg10 mi
5:55 am15 °FClear.No wind86%30.46 "Hg10 mi
5:35 am16 °FClear.No wind87%30.45 "Hg10 mi
5:15 am16 °FClear.No wind86%30.45 "Hg10 mi
4:55 am15 °FClear.No wind87%30.45 "Hg10 mi
4:35 am16 °FClear.No wind87%30.44 "Hg10 mi
4:15 am17 °FClear.No wind86%30.44 "Hg10 mi
3:55 am16 °FClear.No wind86%30.44 "Hg10 mi
3:35 am16 °FClear.No wind86%30.45 "Hg10 mi
3:15 am17 °FClear.No wind85%30.45 "Hg10 mi
2:55 am17 °FClear.No wind86%30.45 "Hg10 mi
2:35 am17 °FClear.No wind86%30.45 "Hg10 mi
2:15 am17 °FClear.No wind84%30.44 "Hg10 mi
1:55 am17 °FClear.No wind85%30.44 "Hg10 mi
1:35 am17 °FClear.No wind86%30.44 "Hg7 mi
1:15 am18 °FClear.No wind85%30.44 "Hg10 mi
12:55 am17 °FClear.No wind86%30.44 "Hg7 mi
12:35 am18 °FClear.No wind84%30.44 "Hg10 mi
11:55 pm
Fri, Dec 9
19 °FClear.No wind83%30.46 "Hg10 mi
11:15 pm20 °FClear.No wind80%30.46 "Hg10 mi
10:55 pm19 °FClear.No wind84%30.46 "Hg10 mi
10:35 pm20 °FClear.No wind80%30.44 "Hg10 mi
10:15 pm20 °FClear.No wind81%30.43 "Hg10 mi
9:55 pm19 °FClear.No wind81%30.43 "Hg10 mi
9:35 pm21 °FClear.No wind77%30.43 "Hg10 mi
9:15 pm20 °FClear.No wind78%30.43 "Hg10 mi
Weather by CustomWeather, © 2016

See weather overviewHow to use our weather pages